Tracking 30743 objects as of 21-Jun-2025
HD Live streaming from Space Station
objects crossing your sky now

COSMOS 970 DEB

Track COSMOS 970 DEB now!
10-day predictions


NORAD ID: 13948
Int'l Code: 1977-121BD
Perigee: 906.6 km
Apogee: 999.3 km
Inclination: 65.8 °
Period: 104.0 minutes
Semi major axis: 7323 km
RCS: 0.0056 m2 (small)
Launch date: December 21, 1977
Source: Commonwealth of Independent States (former USSR) (CIS)
Launch site: TYURATAM MISSILE AND SPACE COMPLEX (TTMTR)

Note: This is SATELLITE DEBRIS
Your satellite tracking list
Your tracking list is empty




NASA's NSSDC Master Catalog

Two Line Element Set (TLE):
1 13948U 77121BD  25172.46704674  .00000970  00000-0  91402-3 0  9993
2 13948  65.7597 271.9208 0063298 180.3601 307.8346 13.85118388253379
Source of the keplerian elements: AFSPC